www.pogodaiklimat.ru
ПОГОДА в Улетах
Время
(UTC), дата
06 7.11
09 7.11
12 7.11
15 7.11
18 7.11
21 7.11
00 8.11
03 8.11
06 8.11
09 8.11
12 8.11
15 8.11
18 8.11
21 8.11
00 9.11
03 9.11
06 9.11
09 9.11
12 9.11
15 9.11
18 9.11
21 9.11
00 10.11
03 10.11
06 10.11
09 10.11
12 10.11
15 10.11
18 10.11
21 10.11
00 11.11
03 11.11
09 11.11
12 11.11
15 11.11
18 11.11
21 11.11
00 12.11
03 12.11
06 12.11
09 12.11
12 12.11
15 12.11
18 12.11
21 12.11
00 13.11
03 13.11
06 13.11
09 13.11
12 13.11
15 13.11
Ветер
(напр.,м/с)
Видим. Явления Облачность Т
(С)
Тd
(С)
f
(%)
Тe
(С)
Тes
(С)
Комфортность P
(гПа)
Po
(гПа)
Тmin
(С)
Tmax
(С)
R
(мм)
R24
(мм)
S
(см)
З 7-11
{17}
50 км 10/4 1000 м
[Sc Ac lent Ci ing]
+6.5 -9.1 32 +2 +3 по сезону 1014.1 926.9
СЗ 6-10
{15}
50 км 10/4 1000 м
[Sc Ac lent Ci ing]
+4.8 -8.3 38 +1 +1 по сезону 1016.3 928.4
З 3
{14}
50 км 10/3 1000 м
[Sc Ac trans Ci ing]
+2.9 -8.2 44 -0 -0 по сезону 1019.1 930.3 +6.8
З 3 50 км 10/0
[Ac lent Ci ing]
+1.5 -7.8 50 -2 -2 по сезону 1020.6 931.3
З 4 50 км 10/0
[Ac lent Ci ing]
+0.3 -7.8 54 -4 -4 прохладно 1021.1 931.4
ЮЗ 3 50 км 10/0
[Ac trans Ci ing]
+0.6 -7.5 55 -3 -3 прохладно 1021.1 931.5
ЮЗ 3 50 км 4/0
[Ac As Ci ing]
-0.8 -7.8 59 -5 -5 холодно 1022.5 932.4 -1.1
З 4 50 км 3/0
[Ac trans Ci ing]
+3.7 -7.8 43 0 +1 по сезону 1020.8 932.2
З 3 50 км 6/1 1000 м
[Sc Ci ing]
+7.0 -9.7 29 +5 +6 тепло 1017.8 930.4
ЮЗ 3 50 км 8/1 1000 м
[Sc Ac lent Ci ing]
+4.5 -9.6 35 +2 +2 по сезону 1017.6 929.5
штиль 0 50 км 10/0
[Ac As Ci ing]
-0.2 -8.9 52 -1 -1 по сезону 1019.0 929.3 +7.6
СЗ 1 50 км 10/0
[Ac trans Ci ing]
-2.7 -9.0 62 -4 -4 прохладно 1018.9 928.4
штиль 0 50 км 8/0
[Ac trans Ci ing]
-5.8 -9.5 75 -7 -7 холодно 1018.2 926.8
штиль 0 50 км 3/0
[Ci ing]
-6.4 -9.4 79 -7 -7 холодно 1016.3 924.9
штиль 0 50 км 1/0
[Ci ing]
-9.3 -11.5 84 -10 -10 очень
холодно
1016.3 923.9 -9.3
штиль 0 50 км 3/0
[Ci ing]
-1.7 -8.1 62 -2 0 по сезону 1011.5 922.0 -9.4
СВ 1 50 км 10/0
[Ac trans Ci ing]
+3.9 -7.4 43 +3 +5 по сезону 1006.2 918.9
Ю 1 50 км 10/3 1000 м
[Cb cap Ac trans Ci ing]
+2.4 -6.7 51 +1 +1 по сезону 1005.3 917.6
ЮВ 1 50 км {ливн. осадки} 10/4 1000 м
[Cb cap Ac As]
+0.9 -4.6 67 -1 -1 по сезону 1005.6 917.5 +5.6 0.0
ЮЗ 4 20 км слаб. дождь 10/0
[As op]
+1.3 -0.1 90 -4 -4 прохладно 1005.2 917.3
З 5 50 км {снег, дождь} 10/0
[Ac As]
+1.4 -1.6 80 -4 -4 прохладно 1005.6 917.7
З 5 50 км 6/4 1000 м
[Sc Ac trans]
+1.0 -2.9 75 -5 -5 холодно 1006.5 918.3
ЮЗ 5 50 км 10/3 1000 м
[Cb cap Ac trans Ci ing]
+0.8 -3.2 75 -5 -5 холодно 1007.8 919.5 -0.4 5
СЗ 5 50 км 8/3 1000 м
[Cb cap Ac lent Ci ing]
+2.4 -4.5 60 -3 -2 прохладно 1007.9 920.0
СЗ 7-14
{14}
50 км 8/6 1000 м
[Cb cap Ac trans Ci ing]
+1.5 -11.1 39 -4 -4 прохладно 1009.1 920.8
З 5-10
{14}
50 км 4/3 1000 м
[Cb cap Ac trans]
-1.3 -9.9 52 -7 -7 холодно 1011.2 921.9
З 6-10
{13}
50 км 1/1 1000 м
[Sc]
-5.4 -14.7 48 -13 -13 очень
холодно
1016.7 925.5 +2.6
З 4
{10}
50 км 8/8 1000 м
[Sc]
-7.3 -14.8 55 -14 -14 очень
холодно
1018.7 926.7
ЮЗ 3 50 км 6/6 1000 м
[Sc]
-9.7 -15.5 63 -15 -15 очень
холодно
1020.9 927.9
ЮЗ 3 50 км 1/1 1000 м
[Sc]
-11.6 -16.2 69 -18 -18 очень
холодно
1022.1 928.4
ЮЗ 4 50 км 1/1 1000 м
[Sc]
-11.4 -16.4 66 -18 -18 очень
холодно
1023.1 929.4 -11.8
З 5 50 км 3/3 1000 м
[Sc]
-8.4 -16.2 53 -16 -15 очень
холодно
1022.3 929.6
З 3 50 км 1/0
[Ci fib]
-9.3 -19.1 45 -15 -15 очень
холодно
1021.9 929.0
штиль 0 50 км ясно -14.1 -19.4 64 -14 -14 очень
холодно
1025.6 930.7 -6.4
штиль 0 50 км 3/0
[Ci ing]
-16.7 -20.2 74 -17 -17 очень
холодно
1027.2 931.2
штиль 0 50 км 10/0
[Ac As]
-14.7 -18.9 70 -15 -15 очень
холодно
1027.2 932.0
З 3 50 км 10/0
[Ac As]
-12.5 -18.2 62 -19 -19 очень
холодно
1027.3 932.8
З 3 20 км слаб. снег 10/0
[As op]
-12.1 -16.1 72 -18 -18 очень
холодно
1028.2 933.7 -16.9 0.0 <0.5
СЗ 4 50 км {снег} 10/3 1000 м
[Sc As trans]
-10.8 -17.8 56 -18 -17 очень
холодно
1028.9 934.9
З 5
{10}
50 км позёмок {снег} 8/8 1000 м
[Cb cap]
-10.9 -17.8 57 -19 -19 очень
холодно
1028.8 934.7
З 6
{11}
50 км {метель} 3/3 1000 м
[Cb cap]
-13.8 -20.0 59 -23 -23 очень
холодно
1031.6 936.2
З 6 50 км {метель} 1/1 1000 м
[Sc]
-15.1 -21.7 57 -25 -25 очень
холодно
1033.5 937.5 -9.9 0.0
ЮЗ 3
{10}
50 км 1/1 1000 м
[Sc]
-16.7 -23.0 58 -24 -24 очень
холодно
1034.1 937.5
З 5 50 км 3/0
[Ci ing]
-17.6 -23.0 63 -27 -27 очень
холодно
1033.3 936.5
ЮЗ 3 50 км ясно -18.3 -23.6 63 -26 -26 очень
холодно
1032.4 935.4
З 5 50 км 3/1 1000 м
[Sc Ci fib]
-18.5 -23.4 65 -28 -28 очень
холодно
1031.5 934.5 -18.7
З 5 50 км 3/3 1000 м
[Cb cap Ci ing]
-14.9 -23.1 50 -24 -23 очень
холодно
1028.8 933.3 -18.7
З 4 50 км 6/6 1000 м
[Cb cap]
-13.6 -23.4 43 -21 -21 очень
холодно
1025.5 930.8
ЮЗ 2 50 км 3/1 1000 м
[Sc Ci ing]
-15.4 -22.4 55 -20 -20 очень
холодно
1023.8 928.6
штиль 0 10 км дым 10/0
[Cs]
-19.3 -23.0 72 -19 -19 очень
холодно
1023.2 926.7 -12.7
ЮВ 1 20 км дым 10/0
[Cs]
-20.4 -23.1 79 -23 -23 очень
холодно
1021.6 924.9
Местоположение метеостанции Улеты (Забайкальский край, Россия): широта 51.35 долгота 112.40 высота над уровнем моря 743 м.
В архиве по умолчанию представлена погода в Улетах за последнюю неделю. Архивные данные за месяц целиком и за предыдущие месяцы, начиная с января 2011 года, Вы можете получить, выбрав интересующий диапазон дат из раскрывающегося списка и нажав кнопку "Найти!".
*Определитесь, кто Вы:
Внимание! Время в таблицах - всемирное. Для получения местного времени необходимо прибавить поправку, которая равна 9 ч.
Смотрите также архив погоды в соседних городах и на ближайших метеорологических станциях:
Партнеры нашего сайта:      
Пояснения к столбцам:
  • Ветер - указаны скорость ветра в м/с - средняя за 10 мин, порывы в срок и между сроками (в фигурных скобках) и направление, откуда дует ветер: С - северный,
  • СВ - северо-восточный, В - восточный, ЮВ - юго-восточный, Ю - южный, ЮЗ - юго-западный, З - западный, СЗ - северо-западный.
  • Видимость - горизонтальная дальность видимости в метрах или километрах. При видимости от 1 до 10 км при отсутствии осадков обычно наблюдается дымка, при ухудшении видимости до 1 км и менее - туман. В сухую погоду видимость может ухудшаться дымом, пылью или мглою.
  • Явления - указаны атмосферные явления, наблюдавшиеся в срок или в последний час перед сроком; фигурными скобками обозначены явления, наблюдавшиеся между сроками (за 1-3 часа до срока); квадратными скобками обозначены град или гололедные отложения с указанием их диаметра в мм.
  • Облачность - указаны через наклонную черту общая и нижняя облачность в баллах и высота нижней границы облаков в метрах; квадратными скобками обозначены формы облаков: Ci - перистые, Cs - перисто-слоистые, Cc - перисто-кучевые, Ac - высококучевые, As - высокослоистые, Sc - слоисто-кучевые, Ns - слоисто-дождевые, Cu - кучевые, Cb - кучево-дождевые. Подробнее классификацию облаков см. в Атласе облаков (PDF).
  • T - Температура воздуха - температура, измеренная на высоте 2 м над землей.
  • Td - Температура точки росы - температура, при понижении до которой содержащийся в воздухе водяной пар достигнет насыщения.
  • f - Относительная влажность воздуха - влажноcть воздуха, измеренная на высоте 2 м над землей.
  • Te - Эффективная температура - температура, которую ощущает одетый по сезону человек в тени. Характеристика душности погоды. При расчете учитывается влияние влажности воздуха и скорости ветра на теплоощущения человека.
  • Tes - Эффективная температура на солнце - температура, которую ощущает человек, с поправкой на солнечный нагрев. Характеристика знойности погоды. Зависит от высоты солнца над горизонтом, облачности и скорости ветра. Ночью, в пасмурную погоду, а также при ветре 12 м/с и более поправка равна нулю.
  • P - Атмосферное давление - приведенное к уровню моря атмосферное давление.
  • Po - Атмосферное давление - измеренное на уровне метеостанции атмосферное давление.
  • Tmin - Минимальная температура - минимум температуры воздуха на высоте 2 м над землей.
  • Tmax - Максимальная температура - максимум температуры воздуха на высоте 2 м над землей.
  • R - Количество осадков - Количество выпавших осадков за период времени, мм. При наведении курсора мыши на число - период времени, за который выпало указанное количество осадков.
  • R24 - Количество осадков - Количество выпавших осадков за 24 часа, мм.
  • S - Снежный покров - Высота снежного покрова, см. При наведении курсора мыши на число - состояние снежного покрова и степень покрытия местности в баллах.